This is the latest recevied weather packets stored in our database for station/object KC1TEM-13. If no packets are shown the sender has not sent any weather packets the latest 10 day(s).
| Time | Temp. | Humidity | Pressure | Rain* | Wind** | Luminosity | Snow |
|---|---|---|---|---|---|---|---|
| 1777593747 | 10.56° C | 93% | 1006.6 hPa | 0 mm | - | 0 W/m² | - |
| 1777593444 | 10.56° C | 93% | 1006.4 hPa | 0 mm | - | 0 W/m² | - |
| 1777593142 | 10.56° C | 93% | 1006.6 hPa | 0 mm | - | 1 W/m² | - |
| 1777592841 | 10.56° C | 93% | 1006.7 hPa | 0 mm | - | 1 W/m² | - |
| 1777592538 | 10.56° C | 93% | 1006.6 hPa | 0 mm | - | 2 W/m² | - |
| 1777592234 | 10.56° C | 93% | 1006.7 hPa | 0 mm | - | 3 W/m² | - |
| 1777591930 | 10.56° C | 92% | 1006.6 hPa | 0 mm | - | 5 W/m² | - |
| 1777591626 | 10.56° C | 92% | 1006.6 hPa | 0 mm | - | 7 W/m² | - |
| 1777591323 | 10.56° C | 91% | 1006.6 hPa | 0 mm | - | 9 W/m² | - |
| 1777591019 | 10.56° C | 90% | 1006.4 hPa | 0 mm | - | 12 W/m² | - |
| 1777590714 | 11.11° C | 90% | 1006.3 hPa | 0 mm | - | 14 W/m² | - |
| 1777590410 | 11.11° C | 90% | 1006.4 hPa | 0 mm | - | 17 W/m² | - |
| 1777590108 | 11.11° C | 90% | 1006.3 hPa | 0 mm | - | 20 W/m² | - |
| 1777589804 | 11.11° C | 90% | 1006.4 hPa | 0 mm | - | 25 W/m² | - |
| 1777589498 | 11.11° C | 90% | 1006.3 hPa | 0 mm | - | 28 W/m² | - |
| 1777589198 | 11.11° C | 89% | 1006 hPa | 0 mm | - | 41 W/m² | - |
| 1777588894 | 11.11° C | 89% | 1006.2 hPa | 0 mm | - | 34 W/m² | - |
| 1777588591 | 11.11° C | 89% | 1005.9 hPa | 0 mm | - | 25 W/m² | - |
| 1777588286 | 11.67° C | 90% | 1006.1 hPa | 0 mm | - | 41 W/m² | - |
| 1777587981 | 11.67° C | 89% | 1005.9 hPa | 0 mm | - | 53 W/m² | - |
| 1777587678 | 11.67° C | 90% | 1006.2 hPa | 0 mm | - | 57 W/m² | - |
| 1777587377 | 11.67° C | 90% | 1006 hPa | 0 mm | - | 68 W/m² | - |
| 1777587074 | 11.67° C | 91% | 1005.8 hPa | 0 mm | - | 61 W/m² | - |
| 1777586770 | 11.67° C | 90% | 1005.8 hPa | 0 mm | - | 67 W/m² | - |
| 1777586465 | 11.67° C | 90% | 1006.1 hPa | 0 mm | - | 53 W/m² | - |
* Rain latest hour (hover to see other rain measurements)
** Current wind speed in m/s (hover to see current wind gust speed)